Location: Unspecified
(0.0000°N, 0.0000°E)
Time: 08:14:11
(UTC+00:00)

SR - Visible Passes

Search period start: 29 May 2015 00:00
Search period end: 08 June 2015 00:00
Orbit: 584 x 876 km, 66.7° (Epoch: 28 May)

Date Brightness Start Highest point End Pass type
(mag) Time Alt. Az. Time Alt. Az. Time Alt. Az.
29 May ? 19:23:49 10° NW 19:28:43 40° WSW 19:33:37 11° S visible
30 May ? 18:34:38 10° NNW 18:39:48 82° ENE 18:45:27 10° SSE visible
31 May ? 05:24:03 10° SE 05:25:21 11° ESE 05:27:00 10° E visible
31 May ? 19:29:33 10° WNW 19:33:08 17° WSW 19:36:35 10° SSW visible
01 Jun ? 18:39:05 10° NW 18:44:02 41° WSW 18:49:19 10° S visible
02 Jun ? 05:25:35 10° S 05:29:47 29° ESE 05:33:47 10° NE visible
03 Jun ? 04:39:40 10° SE 04:40:39 11° ESE 04:41:58 10° E visible
03 Jun ? 18:44:44 10° WNW 18:48:26 18° WSW 18:52:00 10° SSW visible
04 Jun ? 05:29:07 10° SSW 05:34:01 80° ESE 05:38:30 10° NNE visible
05 Jun ? 04:40:56 10° S 04:45:05 28° ESE 04:49:00 10° NE visible
06 Jun ? 03:55:24 10° ESE 03:55:55 10° ESE 03:56:50 10° ESE visible
07 Jun ? 04:45:17 15° SSW 04:49:18 77° ESE 04:53:45 10° NNE visible
